This is the latest recevied weather packets stored in our database for station/object DL4MGC-10. If no packets are shown the sender has not sent any weather packets the latest 10 day(s).
| Time | Temp. | Humidity | Pressure | Rain* | Wind** | Luminosity | Snow |
|---|---|---|---|---|---|---|---|
| 1777620239 | 11.11° C | 44% | 1026.6 hPa | - | - | - | - |
| 1777619339 | 11.11° C | 45% | 1026.3 hPa | - | - | - | - |
| 1777618439 | 10.56° C | 47% | 1026.2 hPa | - | - | - | - |
| 1777617539 | 11.67° C | 53% | 1026.1 hPa | - | - | - | - |
| 1777616639 | 11.11° C | 53% | 1026.3 hPa | - | - | - | - |
| 1777615738 | 8.89° C | 51% | 1026.2 hPa | - | - | - | - |
| 1777614838 | 7.78° C | 57% | 1026.2 hPa | - | - | - | - |
| 1777613938 | 7.22° C | 58% | 1026.2 hPa | - | - | - | - |
| 1777613038 | 6.67° C | 64% | 1026.1 hPa | - | - | - | - |
| 1777612138 | 6.11° C | 64% | 1025.9 hPa | - | - | - | - |
| 1777611238 | 5.56° C | 64% | 1025.6 hPa | - | - | - | - |
| 1777610338 | 5° C | 64% | 1025.7 hPa | - | - | - | - |
| 1777609438 | 5.56° C | 58% | 1025.5 hPa | - | - | - | - |
| 1777608538 | 5° C | 60% | 1025.4 hPa | - | - | - | - |
| 1777607638 | 5° C | 60% | 1025.3 hPa | - | - | - | - |
| 1777606738 | 5° C | 60% | 1025.4 hPa | - | - | - | - |
| 1777605837 | 4.44° C | 67% | 1025.4 hPa | - | - | - | - |
| 1777604937 | 5° C | 66% | 1025.5 hPa | - | - | - | - |
| 1777604037 | 4.44° C | 67% | 1025.5 hPa | - | - | - | - |
| 1777603137 | 5° C | 66% | 1025.5 hPa | - | - | - | - |
| 1777602237 | 5° C | 67% | 1025.6 hPa | - | - | - | - |
| 1777601337 | 5° C | 66% | 1025.5 hPa | - | - | - | - |
| 1777600437 | 5.56° C | 64% | 1025.5 hPa | - | - | - | - |
| 1777599537 | 5.56° C | 64% | 1025.5 hPa | - | - | - | - |
| 1777598637 | 5.56° C | 65% | 1025.6 hPa | - | - | - | - |
* Rain since midnight (hover to see other rain measurements)
** Current wind speed in m/s (hover to see current wind gust speed)